QPF
0.02 0.04 0.10 0.09 0.06 0.05 0.04 0.03 0.03 0.05 0.10 0.08 0.04 0.03 0.04 0.05 0.07 0.08 0.07 0.06 0.05 0.05 0.05 0.06 0.05 0.04 0.04 0.03 0.03 0.02 0.02 0.03 0.03 0.03 0.05 0.05 0.06 0.05 0.05 0.05 0.05 0.04 0.07
0.01 0.04 0.07 0.05 0.03 0.02 0.02 0.03 0.02 0.02 0.05 0.08 0.07 0.06 0.05 0.05 0.06 0.08 0.07 0.04 0.04 0.03 0.03 0.04 0.06 0.04 0.04 0.05 0.05 0.03 0.02 0.02 0.02 0.02 0.04 0.04 0.05 0.07 0.06 0.05 0.06 0.06 0.06
0.02 0.04 0.05 0.04 0.04 0.03 0.04 0.04 0.01 0.02 0.03 0.05 0.06 0.08 0.05 0.04 0.05 0.08 0.07 0.06 0.05 0.03 0.03 0.03 0.04 0.04 0.04 0.06 0.07 0.04 0.02 0.02 0.03 0.03 0.02 0.01 0.02 0.05 0.05 0.06 0.07 0.07 0.04
0.02 0.03 0.03 0.04 0.04 0.04 0.05 0.05 0.03 0.02 0.02 0.02 0.04 0.04 0.04 0.04 0.04 0.05 0.07 0.06 0.04 0.04 0.03 0.02 0.03 0.04 0.04 0.05 0.08 0.05 0.03 0.03 0.03 0.03 0.01 0.00 0.01 0.05 0.07 0.06 0.06 0.08 0.07
0.01 0.02 0.03 0.06 0.05 0.06 0.05 0.04 0.03 0.02 0.01 0.01 0.01 0.02 0.03 0.08 0.05 0.04 0.05 0.05 0.05 0.03 0.02 0.03 0.05 0.06 0.05 0.05 0.06 0.05 0.04 0.04 0.04 0.03 0.01 0.01 0.01 0.04 0.06 0.07 0.10 0.11 0.11
0.01 0.02 0.03 0.04 0.04 0.03 0.03 0.02 0.03 0.02 0.01 0.01 0.01 0.01 0.03 0.10 0.15 0.06 0.04 0.05 0.04 0.04 0.03 0.05 0.06 0.07 0.07 0.07 0.07 0.06 0.05 0.07 0.04 0.02 0.01 0.01 0.01 0.04 0.05 0.07 0.10 0.11 0.09
0.02 0.03 0.03 0.04 0.03 0.02 0.02 0.02 0.02 0.02 0.01 0.01 0.01 0.02 0.03 0.06 0.15 0.12 0.05 0.04 0.04 0.04 0.04 0.04 0.04 0.05 0.06 0.07 0.07 0.07 0.05 0.05 0.02 0.01 0.01 0.01 0.03 0.06 0.07 0.08 0.12 0.10 0.08
0.02 0.02 0.02 0.03 0.03 0.02 0.02 0.02 0.02 0.01 0.01 0.01 0.01 0.02 0.03 0.03 0.05 0.08 0.05 0.05 0.04 0.04 0.03 0.03 0.03 0.04 0.05 0.05 0.05 0.06 0.05 0.03 0.01 0.01 0.01 0.01 0.03 0.06 0.08 0.08 0.10 0.11 0.12
0.03 0.02 0.02 0.02 0.02 0.02 0.03 0.03 0.02 0.02 0.02 0.02 0.02 0.02 0.03 0.04 0.03 0.04 0.03 0.03 0.04 0.04 0.04 0.03 0.03 0.04 0.06 0.05 0.05 0.06 0.05 0.03 0.01 0.01 0.01 0.02 0.04 0.08 0.09 0.09 0.09 0.09 0.09
0.03 0.02 0.02 0.02 0.02 0.02 0.02 0.03 0.02 0.02 0.02 0.02 0.01 0.01 0.01 0.03 0.04 0.05 0.03 0.03 0.04 0.04 0.04 0.04 0.04 0.05 0.05 0.04 0.04 0.05 0.04 0.02 0.01 0.02 0.02 0.04 0.07 0.08 0.06 0.05 0.05 0.05 0.06
0.02 0.02 0.02 0.02 0.02 0.02 0.02 0.01 0.01 0.01 0.01 0.01 0.01 0.01 0.01 0.00 0.01 0.02 0.02 0.03 0.04 0.05 0.05 0.04 0.04 0.03 0.02 0.03 0.05 0.06 0.03 0.02 0.02 0.03 0.04 0.08 0.09 0.08 0.07 0.05 0.05 0.05 0.05
0.02 0.02 0.02 0.02 0.02 0.01 0.01 0.00 0.00 0.00 0.00 0.00 0.00 0.00 0.00 0.00 0.00 0.01 0.01 0.02 0.03 0.03 0.03 0.03 0.03 0.02 0.02 0.02 0.02 0.03 0.03 0.02 0.02 0.03 0.07 0.12 0.10 0.08 0.07 0.06 0.05 0.05 0.04
0.01 0.02 0.02 0.01 0.01 0.01 0.01 0.00 0.00 0.00 0.00 0.00 0.00 0.00 0.00 0.00 0.00 0.00 0.00 0.01 0.01 0.01 0.01 0.01 0.01 0.01 0.02 0.02 0.02 0.02 0.02 0.02 0.01 0.03 0.09 0.12 0.09 0.08 0.07 0.07 0.05 0.06 0.05
0.01 0.01 0.02 0.01 0.01 0.00 0.01 0.01 0.00 0.00 0.00 0.00 0.00 0.00 0.00 0.00 0.00 0.00 0.00 0.00 0.00 0.00 0.01 0.01 0.01 0.01 0.02 0.03 0.05 0.04 0.03 0.01 0.01 0.03 0.06 0.08 0.10 0.09 0.07 0.07 0.07 0.08 0.06
0.01 0.01 0.01 0.01 0.01 0.01 0.01 0.01 0.01 0.01 0.01 0.01 0.00 0.00 0.00 0.00 0.00 0.00 0.00 0.00 0.00 0.00 0.01 0.01 0.01 0.02 0.03 0.03 0.04 0.03 0.02 0.02 0.02 0.03 0.03 0.07 0.11 0.11 0.08 0.08 0.08 0.08 0.06
0.01 0.01 0.01 0.01 0.01 0.01 0.01 0.01 0.01 0.01 0.01 0.01 0.00 0.00 0.00 0.00 0.00 0.00 0.00 0.00 0.00 0.00 0.01 0.01 0.02 0.02 0.03 0.03 0.04 0.03 0.03 0.02 0.01 0.01 0.02 0.03 0.05 0.08 0.09 0.09 0.07 0.05 0.04
0.00 0.01 0.02 0.02 0.02 0.01 0.01 0.01 0.01 0.01 0.01 0.01 0.01 0.01 0.01 0.00 0.01 0.01 0.00 0.00 0.02 0.02 0.01 0.01 0.02 0.02 0.02 0.03 0.05 0.05 0.05 0.02 0.01 0.01 0.02 0.02 0.03 0.06 0.07 0.07 0.05 0.04 0.04
0.00 0.01 0.02 0.01 0.02 0.01 0.01 0.01 0.01 0.01 0.01 0.01 0.02 0.01 0.01 0.01 0.01 0.01 0.01 0.01 0.01 0.01 0.01 0.01 0.02 0.01 0.01 0.02 0.05 0.06 0.05 0.04 0.02 0.02 0.02 0.02 0.03 0.04 0.03 0.04 0.05 0.05 0.04
0.01 0.01 0.01 0.01 0.01 0.02 0.02 0.01 0.00 0.01 0.01 0.01 0.01 0.01 0.01 0.00 0.00 0.00 0.00 0.00 0.00 0.00 0.00 0.01 0.01 0.01 0.01 0.02 0.04 0.05 0.04 0.04 0.03 0.02 0.03 0.02 0.03 0.04 0.03 0.03 0.05 0.07 0.09
0.01 0.01 0.01 0.01 0.01 0.02 0.01 0.01 0.00 0.01 0.01 0.01 0.01 0.01 0.00 0.00 0.00 0.00 0.00 0.00 0.00 0.00 0.00 0.01 0.01 0.01 0.01 0.02 0.03 0.03 0.02 0.02 0.04 0.05 0.05 0.04 0.04 0.03 0.02 0.02 0.03 0.04 0.08
0.01 0.01 0.01 0.01 0.01 0.01 0.01 0.01 0.00 0.01 0.01 0.00 0.00 0.01 0.01 0.01 0.00 0.00 0.00 0.00 0.00 0.00 0.00 0.00 0.01 0.01 0.01 0.01 0.01 0.01 0.01 0.01 0.02 0.04 0.05 0.04 0.04 0.03 0.02 0.02 0.02 0.01 0.02
0.02 0.02 0.01 0.01 0.01 0.01 0.01 0.01 0.00 0.00 0.00 0.00 0.01 0.01 0.01 0.01 0.01 0.00 0.00 0.00 0.00 0.00 0.00 0.01 0.02 0.01 0.01 0.01 0.01 0.01 0.01 0.01 0.01 0.01 0.02 0.02 0.02 0.02 0.02 0.02 0.01 0.01 0.01
0.02 0.02 0.01 0.02 0.02 0.01 0.01 0.00 0.00 0.00 0.00 0.00 0.01 0.01 0.01 0.01 0.01 0.00 0.00 0.00 0.00 0.00 0.00 0.00 0.01 0.01 0.01 0.01 0.01 0.02 0.01 0.01 0.00 0.00 0.01 0.01 0.01 0.01 0.01 0.02 0.02 0.03 0.02
0.02 0.01 0.01 0.01 0.02 0.02 0.01 0.00 0.00 0.00 0.00 0.01 0.01 0.01 0.01 0.01 0.00 0.00 0.01 0.00 0.00 0.00 0.00 0.00 0.00 0.01 0.01 0.02 0.01 0.01 0.01 0.01 0.00 0.00 0.00 0.00 0.01 0.01 0.01 0.03 0.03 0.04 0.04
0.01 0.01 0.01 0.01 0.01 0.02 0.02 0.01 0.00 0.00 0.00 0.01 0.02 0.01 0.01 0.01 0.01 0.01 0.01 0.01 0.00 0.00 0.00 0.00 0.00 0.00 0.01 0.01 0.01 0.00 0.00 0.00 0.00 0.00 0.00 0.00 0.00 0.01 0.01 0.01 0.01 0.02 0.01
0.01 0.01 0.01 0.01 0.01 0.01 0.02 0.01 0.00 0.00 0.00 0.01 0.01 0.01 0.01 0.01 0.00 0.00 0.01 0.00 0.00 0.00 0.00 0.00 0.00 0.00 0.00 0.00 0.00 0.01 0.01 0.01 0.01 0.01 0.01 0.00 0.00 0.00 0.00 0.00 0.00 0.00 0.00
MSLP
1015.31 1014.71 1014.19 1013.81 1013.58 1013.48 1013.46 1013.47 1013.46 1013.41 1013.31 1013.20 1013.11 1013.07 1013.12 1013.25 1013.45 1013.67 1013.88 1014.04 1014.14 1014.19 1014.21 1014.25 1014.33 1014.48 1014.68 1014.90 1015.12 1015.29 1015.37 1015.37 1015.28 1015.13 1014.95 1014.79 1014.67 1014.59 1014.55 1014.55 1014.56 1014.58 1014.59
1015.45 1014.88 1014.40 1014.04 1013.82 1013.72 1013.69 1013.68 1013.65 1013.60 1013.52 1013.44 1013.39 1013.42 1013.53 1013.71 1013.95 1014.19 1014.39 1014.53 1014.61 1014.62 1014.62 1014.62 1014.68 1014.79 1014.94 1015.12 1015.28 1015.38 1015.41 1015.35 1015.21 1015.03 1014.84 1014.68 1014.56 1014.50 1014.48 1014.50 1014.53 1014.55 1014.57
1015.48 1014.96 1014.52 1014.21 1014.02 1013.93 1013.91 1013.90 1013.89 1013.85 1013.79 1013.74 1013.74 1013.80 1013.95 1014.15 1014.39 1014.62 1014.80 1014.91 1014.95 1014.94 1014.91 1014.90 1014.92 1015.00 1015.12 1015.24 1015.34 1015.38 1015.34 1015.23 1015.06 1014.87 1014.69 1014.55 1014.46 1014.42 1014.43 1014.46 1014.49 1014.52 1014.54
1015.43 1014.97 1014.59 1014.33 1014.19 1014.14 1014.15 1014.17 1014.17 1014.15 1014.11 1014.09 1014.11 1014.20 1014.34 1014.54 1014.75 1014.94 1015.08 1015.15 1015.16 1015.13 1015.09 1015.06 1015.08 1015.13 1015.21 1015.29 1015.33 1015.31 1015.23 1015.08 1014.90 1014.72 1014.56 1014.45 1014.40 1014.39 1014.41 1014.45 1014.48 1014.49 1014.49
1015.35 1014.96 1014.66 1014.46 1014.38 1014.38 1014.42 1014.46 1014.49 1014.48 1014.46 1014.46 1014.48 1014.56 1014.68 1014.84 1015.00 1015.14 1015.23 1015.26 1015.24 1015.21 1015.17 1015.15 1015.17 1015.21 1015.27 1015.30 1015.30 1015.24 1015.12 1014.96 1014.78 1014.62 1014.49 1014.42 1014.39 1014.41 1014.43 1014.45 1014.46 1014.45 1014.42
1015.32 1014.99 1014.76 1014.63 1014.60 1014.64 1014.71 1014.77 1014.81 1014.81 1014.80 1014.79 1014.81 1014.86 1014.94 1015.05 1015.15 1015.23 1015.27 1015.27 1015.24 1015.20 1015.17 1015.18 1015.21 1015.26 1015.30 1015.31 1015.28 1015.18 1015.05 1014.88 1014.71 1014.58 1014.48 1014.44 1014.43 1014.44 1014.45 1014.45 1014.41 1014.36 1014.29
1015.36 1015.10 1014.92 1014.86 1014.87 1014.93 1015.00 1015.06 1015.09 1015.09 1015.07 1015.05 1015.05 1015.07 1015.12 1015.18 1015.23 1015.25 1015.25 1015.22 1015.18 1015.15 1015.15 1015.17 1015.22 1015.28 1015.32 1015.32 1015.26 1015.15 1015.01 1014.84 1014.69 1014.57 1014.50 1014.47 1014.46 1014.45 1014.42 1014.37 1014.28 1014.17 1014.07
1015.51 1015.29 1015.17 1015.13 1015.16 1015.22 1015.28 1015.31 1015.31 1015.28 1015.24 1015.21 1015.19 1015.20 1015.22 1015.25 1015.25 1015.24 1015.21 1015.16 1015.12 1015.09 1015.11 1015.15 1015.22 1015.28 1015.32 1015.31 1015.24 1015.13 1014.98 1014.82 1014.68 1014.57 1014.50 1014.46 1014.42 1014.36 1014.28 1014.16 1014.01 1013.86 1013.73
1015.74 1015.57 1015.48 1015.45 1015.47 1015.50 1015.51 1015.49 1015.44 1015.38 1015.32 1015.27 1015.25 1015.26 1015.27 1015.28 1015.28 1015.24 1015.19 1015.13 1015.08 1015.05 1015.07 1015.12 1015.19 1015.25 1015.29 1015.27 1015.20 1015.09 1014.94 1014.79 1014.65 1014.53 1014.44 1014.35 1014.26 1014.13 1013.97 1013.79 1013.58 1013.39 1013.25
1016.02 1015.89 1015.81 1015.79 1015.77 1015.75 1015.70 1015.62 1015.51 1015.41 1015.32 1015.27 1015.26 1015.28 1015.31 1015.33 1015.32 1015.28 1015.22 1015.14 1015.08 1015.05 1015.05 1015.09 1015.15 1015.20 1015.23 1015.21 1015.14 1015.02 1014.88 1014.73 1014.57 1014.43 1014.29 1014.13 1013.96 1013.75 1013.50 1013.24 1012.99 1012.78 1012.65
1016.30 1016.20 1016.14 1016.11 1016.06 1015.98 1015.86 1015.71 1015.55 1015.41 1015.30 1015.26 1015.26 1015.30 1015.36 1015.40 1015.41 1015.38 1015.31 1015.23 1015.15 1015.09 1015.07 1015.08 1015.11 1015.14 1015.15 1015.13 1015.06 1014.95 1014.81 1014.64 1014.46 1014.27 1014.06 1013.81 1013.54 1013.22 1012.89 1012.56 1012.28 1012.07 1011.97
1016.52 1016.46 1016.43 1016.39 1016.32 1016.20 1016.02 1015.82 1015.61 1015.44 1015.32 1015.28 1015.31 1015.38 1015.47 1015.54 1015.57 1015.55 1015.49 1015.39 1015.28 1015.19 1015.13 1015.10 1015.10 1015.10 1015.10 1015.07 1015.00 1014.89 1014.75 1014.56 1014.34 1014.09 1013.78 1013.43 1013.04 1012.62 1012.20 1011.81 1011.51 1011.32 1011.27
1016.66 1016.64 1016.64 1016.62 1016.54 1016.40 1016.20 1015.96 1015.73 1015.53 1015.42 1015.39 1015.43 1015.53 1015.64 1015.74 1015.79 1015.79 1015.72 1015.61 1015.49 1015.37 1015.27 1015.20 1015.15 1015.13 1015.10 1015.07 1015.00 1014.89 1014.73 1014.52 1014.25 1013.92 1013.52 1013.05 1012.54 1012.01 1011.51 1011.07 1010.76 1010.61 1010.63
1016.69 1016.73 1016.77 1016.78 1016.73 1016.59 1016.39 1016.16 1015.93 1015.73 1015.62 1015.59 1015.65 1015.75 1015.88 1016.00 1016.06 1016.07 1016.01 1015.90 1015.76 1015.61 1015.47 1015.37 1015.29 1015.24 1015.20 1015.15 1015.08 1014.97 1014.80 1014.56 1014.24 1013.82 1013.32 1012.74 1012.12 1011.49 1010.91 1010.44 1010.13 1010.01 1010.11
1016.62 1016.72 1016.82 1016.88 1016.87 1016.77 1016.61 1016.41 1016.21 1016.03 1015.92 1015.90 1015.94 1016.04 1016.17 1016.28 1016.35 1016.37 1016.31 1016.21 1016.06 1015.90 1015.75 1015.62 1015.52 1015.44 1015.38 1015.33 1015.26 1015.14 1014.96 1014.69 1014.32 1013.83 1013.24 1012.56 1011.84 1011.13 1010.50 1010.00 1009.70 1009.62 1009.77
1016.49 1016.63 1016.79 1016.91 1016.96 1016.94 1016.85 1016.71 1016.55 1016.41 1016.31 1016.27 1016.30 1016.37 1016.47 1016.56 1016.63 1016.65 1016.61 1016.51 1016.38 1016.23 1016.07 1015.93 1015.81 1015.72 1015.66 1015.60 1015.52 1015.41 1015.22 1014.93 1014.52 1013.98 1013.32 1012.57 1011.79 1011.02 1010.36 1009.85 1009.55 1009.50 1009.69
1016.32 1016.50 1016.70 1016.89 1017.02 1017.09 1017.08 1017.02 1016.93 1016.83 1016.74 1016.69 1016.67 1016.70 1016.76 1016.81 1016.86 1016.88 1016.85 1016.78 1016.68 1016.54 1016.40 1016.26 1016.14 1016.04 1015.97 1015.91 1015.84 1015.73 1015.55 1015.25 1014.84 1014.27 1013.59 1012.81 1011.99 1011.21 1010.53 1010.02 1009.74 1009.70 1009.91
1016.17 1016.37 1016.60 1016.84 1017.05 1017.20 1017.30 1017.33 1017.31 1017.25 1017.17 1017.09 1017.04 1017.01 1017.00 1017.02 1017.04 1017.05 1017.04 1017.00 1016.92 1016.82 1016.70 1016.57 1016.46 1016.36 1016.29 1016.24 1016.18 1016.09 1015.93 1015.66 1015.26 1014.72 1014.04 1013.28 1012.47 1011.70 1011.04 1010.55 1010.27 1010.24 1010.43
1016.07 1016.27 1016.51 1016.79 1017.06 1017.30 1017.49 1017.61 1017.66 1017.64 1017.57 1017.48 1017.37 1017.28 1017.21 1017.18 1017.17 1017.17 1017.17 1017.15 1017.11 1017.04 1016.94 1016.84 1016.73 1016.65 1016.59 1016.56 1016.52 1016.46 1016.34 1016.13 1015.78 1015.29 1014.68 1013.97 1013.23 1012.51 1011.88 1011.42 1011.15 1011.10 1011.26
1016.04 1016.22 1016.46 1016.76 1017.07 1017.38 1017.65 1017.85 1017.97 1018.00 1017.94 1017.82 1017.68 1017.53 1017.40 1017.32 1017.27 1017.26 1017.27 1017.27 1017.25 1017.21 1017.14 1017.05 1016.96 1016.89 1016.85 1016.84 1016.84 1016.83 1016.78 1016.64 1016.38 1015.99 1015.47 1014.86 1014.21 1013.57 1013.01 1012.58 1012.32 1012.25 1012.35
1016.09 1016.24 1016.47 1016.77 1017.11 1017.47 1017.80 1018.06 1018.24 1018.31 1018.27 1018.14 1017.96 1017.77 1017.59 1017.46 1017.38 1017.36 1017.36 1017.37 1017.37 1017.35 1017.29 1017.22 1017.14 1017.09 1017.07 1017.09 1017.14 1017.20 1017.23 1017.18 1017.04 1016.76 1016.37 1015.89 1015.35 1014.81 1014.32 1013.94 1013.69 1013.59 1013.62
1016.20 1016.33 1016.54 1016.83 1017.18 1017.57 1017.93 1018.25 1018.47 1018.57 1018.55 1018.43 1018.24 1018.01 1017.81 1017.64 1017.54 1017.49 1017.49 1017.50 1017.50 1017.49 1017.44 1017.37 1017.30 1017.26 1017.27 1017.33 1017.43 1017.56 1017.67 1017.73 1017.70 1017.56 1017.30 1016.95 1016.54 1016.11 1015.71 1015.38 1015.15 1015.01 1014.98
1016.34 1016.46 1016.66 1016.94 1017.28 1017.67 1018.06 1018.41 1018.66 1018.79 1018.80 1018.69 1018.50 1018.27 1018.05 1017.87 1017.75 1017.69 1017.67 1017.68 1017.68 1017.65 1017.60 1017.54 1017.48 1017.45 1017.47 1017.56 1017.71 1017.90 1018.09 1018.25 1018.33 1018.31 1018.18 1017.96 1017.68 1017.36 1017.04 1016.77 1016.54 1016.39 1016.29
1016.48 1016.61 1016.80 1017.06 1017.39 1017.77 1018.17 1018.52 1018.80 1018.96 1019.00 1018.91 1018.74 1018.53 1018.31 1018.13 1018.01 1017.94 1017.92 1017.91 1017.90 1017.87 1017.81 1017.74 1017.68 1017.66 1017.70 1017.81 1017.99 1018.22 1018.47 1018.70 1018.86 1018.94 1018.92 1018.81 1018.64 1018.42 1018.18 1017.96 1017.76 1017.59 1017.45
1016.58 1016.73 1016.92 1017.17 1017.49 1017.85 1018.24 1018.59 1018.88 1019.06 1019.13 1019.08 1018.94 1018.76 1018.57 1018.41 1018.29 1018.23 1018.20 1018.19 1018.17 1018.13 1018.06 1017.99 1017.92 1017.90 1017.94 1018.06 1018.26 1018.51 1018.78 1019.05 1019.26 1019.41 1019.47 1019.45 1019.36 1019.22 1019.07 1018.90 1018.73 1018.56 1018.38
1016.63 1016.81 1017.00 1017.24 1017.54 1017.89 1018.25 1018.60 1018.89 1019.09 1019.18 1019.17 1019.07 1018.93 1018.78 1018.65 1018.56 1018.51 1018.49 1018.48 1018.46 1018.41 1018.35 1018.27 1018.20 1018.17 1018.21 1018.32 1018.51 1018.75 1019.02 1019.28 1019.51 1019.69 1019.79 1019.83 1019.81 1019.75 1019.66 1019.55 1019.42 1019.27 1019.09
Thickness
5747 5749 5750 5750 5751 5751 5751 5751 5751 5751 5752 5752 5752 5752 5752 5753 5753 5753 5754 5754 5755 5756 5756 5757 5757 5757 5758 5758 5758 5759 5759 5760 5761 5762 5762 5763 5764 5765 5765 5766 5766 5767 5767
5748 5749 5749 5749 5749 5749 5749 5749 5749 5749 5749 5749 5750 5750 5750 5750 5750 5751 5751 5752 5753 5753 5754 5754 5754 5755 5755 5755 5755 5756 5757 5758 5758 5759 5760 5760 5762 5763 5763 5764 5765 5765 5766
5748 5748 5748 5748 5747 5747 5747 5747 5747 5747 5746 5747 5747 5747 5747 5747 5748 5748 5749 5749 5750 5750 5750 5751 5751 5751 5752 5752 5753 5753 5754 5754 5755 5756 5757 5758 5759 5760 5761 5762 5763 5764 5764
5747 5746 5746 5746 5746 5745 5745 5745 5744 5744 5744 5744 5744 5744 5745 5745 5745 5745 5746 5746 5747 5747 5747 5748 5748 5748 5749 5749 5750 5750 5751 5751 5752 5752 5753 5754 5756 5758 5759 5760 5761 5761 5762
5745 5745 5744 5744 5744 5743 5743 5743 5742 5742 5741 5741 5742 5742 5742 5742 5742 5743 5743 5744 5744 5744 5744 5745 5745 5745 5746 5746 5747 5747 5748 5748 5748 5749 5750 5752 5753 5755 5756 5757 5758 5759 5759
5743 5743 5742 5742 5741 5741 5741 5740 5740 5740 5739 5739 5739 5739 5739 5739 5740 5740 5740 5740 5741 5741 5741 5741 5742 5742 5743 5743 5743 5744 5744 5745 5745 5746 5747 5749 5750 5752 5753 5755 5756 5756 5756
5741 5741 5740 5740 5739 5739 5738 5738 5738 5737 5737 5737 5737 5737 5736 5737 5737 5737 5737 5737 5738 5738 5738 5738 5738 5739 5739 5739 5740 5740 5741 5741 5742 5743 5744 5745 5747 5749 5750 5752 5753 5753 5754
5739 5739 5738 5738 5737 5736 5736 5735 5735 5734 5734 5734 5734 5734 5734 5734 5734 5734 5734 5734 5734 5735 5735 5735 5735 5735 5735 5735 5736 5737 5737 5737 5738 5739 5741 5742 5744 5746 5747 5748 5749 5750 5751
5737 5736 5735 5735 5734 5733 5733 5733 5732 5732 5732 5732 5731 5731 5731 5730 5731 5731 5731 5731 5731 5731 5731 5732 5732 5731 5731 5732 5732 5733 5733 5733 5734 5735 5737 5739 5741 5742 5743 5744 5746 5747 5748
5734 5734 5733 5732 5731 5730 5730 5730 5730 5730 5730 5729 5729 5729 5728 5728 5728 5728 5728 5728 5728 5728 5728 5728 5728 5728 5728 5728 5728 5728 5729 5729 5730 5731 5733 5735 5737 5738 5740 5741 5742 5743 5745
5731 5731 5731 5730 5729 5728 5728 5728 5728 5727 5727 5727 5726 5726 5725 5725 5725 5725 5725 5725 5725 5725 5724 5724 5724 5724 5724 5724 5724 5724 5725 5725 5726 5728 5729 5731 5733 5735 5736 5737 5739 5740 5741
5726 5728 5729 5728 5727 5726 5726 5725 5725 5725 5724 5724 5724 5723 5722 5722 5722 5722 5722 5722 5721 5721 5720 5720 5720 5720 5720 5719 5719 5720 5721 5721 5723 5723 5725 5727 5729 5731 5732 5734 5735 5736 5737
5726 5726 5727 5727 5726 5724 5723 5723 5723 5722 5722 5722 5721 5721 5720 5720 5719 5719 5718 5718 5718 5717 5717 5716 5715 5715 5715 5715 5715 5715 5716 5717 5718 5719 5720 5722 5724 5726 5728 5730 5731 5732 5733
5724 5725 5726 5725 5724 5723 5722 5721 5721 5720 5720 5719 5719 5718 5718 5717 5716 5715 5714 5714 5714 5713 5713 5712 5712 5711 5711 5710 5711 5711 5712 5712 5713 5714 5715 5717 5720 5722 5724 5726 5727 5728 5729
5723 5723 5724 5724 5722 5721 5720 5719 5719 5718 5717 5717 5716 5716 5716 5715 5713 5712 5711 5711 5710 5710 5710 5709 5708 5707 5707 5706 5706 5706 5706 5707 5708 5709 5711 5713 5715 5717 5719 5722 5723 5724 5724
5721 5722 5722 5722 5721 5720 5718 5717 5716 5716 5715 5715 5714 5714 5714 5713 5712 5710 5709 5708 5708 5707 5706 5706 5705 5704 5703 5702 5701 5701 5702 5702 5703 5705 5706 5708 5710 5712 5714 5716 5718 5719 5720
5721 5721 5720 5720 5719 5718 5716 5715 5715 5714 5714 5713 5712 5712 5712 5711 5710 5709 5707 5706 5705 5705 5704 5703 5701 5700 5699 5698 5697 5697 5697 5698 5699 5700 5702 5703 5705 5707 5709 5711 5712 5713 5714
5720 5719 5719 5719 5717 5716 5714 5714 5713 5712 5712 5711 5710 5711 5710 5709 5709 5707 5706 5704 5703 5702 5701 5700 5698 5696 5694 5693 5693 5693 5693 5694 5695 5696 5697 5698 5700 5701 5703 5705 5706 5707 5709
5719 5717 5716 5716 5715 5713 5712 5711 5710 5710 5709 5709 5709 5709 5708 5708 5707 5706 5704 5702 5701 5700 5699 5697 5695 5693 5691 5690 5689 5689 5689 5690 5690 5691 5692 5693 5695 5696 5697 5698 5700 5701 5703
5717 5716 5714 5713 5712 5711 5710 5709 5708 5707 5706 5706 5706 5706 5706 5706 5705 5704 5702 5700 5699 5698 5696 5694 5692 5691 5689 5687 5688 5686 5685 5686 5686 5687 5687 5689 5690 5691 5692 5693 5695 5696 5697
5715 5713 5712 5710 5709 5708 5706 5705 5703 5702 5703 5704 5704 5704 5704 5704 5703 5702 5700 5699 5697 5695 5694 5693 5691 5688 5686 5685 5684 5681 5681 5682 5682 5682 5683 5684 5686 5687 5688 5689 5690 5691 5692
5712 5711 5710 5708 5707 5707 5706 5704 5703 5702 5701 5701 5702 5702 5702 5701 5701 5700 5699 5697 5695 5694 5692 5691 5690 5687 5685 5684 5681 5677 5674 5675 5677 5679 5679 5680 5681 5683 5684 5684 5685 5686 5687
5709 5709 5709 5707 5706 5705 5705 5703 5702 5700 5699 5698 5698 5698 5699 5699 5699 5698 5697 5696 5694 5693 5691 5690 5689 5687 5683 5681 5680 5677 5672 5669 5670 5674 5675 5676 5677 5678 5679 5680 5681 5682 5683
5709 5709 5707 5706 5704 5704 5703 5702 5699 5696 5694 5694 5695 5696 5696 5697 5697 5696 5695 5694 5693 5692 5690 5689 5688 5686 5684 5680 5678 5678 5676 5674 5669 5667 5670 5673 5674 5674 5675 5676 5677 5678 5678
5709 5707 5706 5704 5703 5702 5701 5700 5698 5696 5694 5693 5693 5694 5694 5694 5694 5694 5693 5693 5691 5690 5689 5688 5687 5686 5684 5681 5678 5677 5675 5672 5671 5667 5665 5666 5669 5671 5672 5672 5673 5673 5674
5707 5706 5704 5702 5701 5700 5700 5699 5697 5695 5693 5692 5691 5691 5690 5690 5691 5691 5691 5691 5690 5689 5688 5687 5686 5684 5683 5681 5679 5677 5675 5673 5670 5667 5664 5662 5663 5666 5668 5669 5669 5670 5670